STARLINK-3203 (49761 NORAD) Tracking and Keplerian Element Data

This shows tracking and keplerian element data for the satellite.

Feedback or suggestion? Click here.




ElementValue
Catalog49761
NameSTARLINK-3203
Epoch Orbit2712
Epoch Day140.91667824
Epoch Year2022
RAAN253.5782
Inclination53.2159
Eccentricity0.0001858
Argument of Perigee50.3161
Mean Anonmoly32.7157
Mean Motion15.08854163
Decay Rate-0.00035082
L11 49761U 21115AP 22140.91667824 -.00035082 00000+0 -21960-2 0 9998
L22 49761 53.2159 253.5782 0001858 50.3161 32.7157 15.08854163 27122

Live tracking and technical data element details for STARLINK-3203 (NORAD 49761). STARLINK-3203 can be tracked NOW for your location showing map with azimuth and elevation plus other details from your city location.

Track the satellite on the map from your city or location and see movement details for azimuth, elevation, latitude, longitude, range, height, and movement on the map or in text.







IsCatalogInMostPopularTable: catalog: 49761, numindb: 21
Update: records affected: 1



GetName: 49761 STARLINK-3203

Hit Count: updated at: Mon, 23 May 2022 21:31:27 GMT